CZ-6A DEB, 56649

Orbit data source: Space-Track

CZ-6A DEB, 56649 is space debris in SSO originally from a launch on Fri, 11 Nov 2022 UTC launched from the Taiyaun Space Center, China (TSC). Debris objects in space refer to the collection of defunct objects orbiting the Earth. Examples of debris include non-operational satellites, rocket bodies, and fragments generated from explosions, collisions, or faulty payload assembly.

Loading next visibility...
Identifier
56649, 2022-151AFZ
Orbit
SSO
Country
Flag of CNCN / PRC
Related business
Manufacturer
SAST
Mission
Spacecraft
Bus & Motor
Unknown
Mass
Unknown
Launch date (UTC)
2022-11-11 (3 years ago)
Launch vehicle
Unknown
Launch site
Taiyaun Space Center, China (TSC)
Object type
Payload
Rocket body
Debris
Shape & HBR
Unknown shape, 0.1 m
Radar Cross Section
Small (<0.1 m²)

Expand to show TLE details & history
Last TLE update: 16 hours ago

TLE from 16 hours ago
0 CZ-6A DEB
1 56649U 22151AFZ 25349.95496180  .00001885  00000-0  95676-3 0  9994
2 56649  98.8340 355.7438 0040216 122.3719 238.1358 14.16737286144900
Epoch: 2025-12-15T22:55Z
TLE epoch observation values (Epoch: 2025-12-15T22:55:08.699Z)
Latitude
0.00004°
Longitude
-72.88856°
Altitude
854.718 km
Speed
7.417 km/s
True Right ascension
23h 42m 58s
True Declination
0° 00' 00"
Sunlit
Object was in daylight at epoch
Visualization orbit readout
Latitude
Unknown
Longitude
Unknown
Altitude
Unknown
Speed
Unknown
Apparent Right ascension
Unknown
Apparent Declination
Unknown
Sunlit
N/A
Visualization observer readout
Local Sidereal Time
13:42:16
Azimuth
Unknown
Elevation
Unknown
Doppler factor
Unknown
Orbital elements
Apogee altitude
862.58 km
Perigee altitude
804.574 km
Semi-major axis
7,211.714 km
Eccentricity
0.00402
Inclination
98.834°
RAAN
355.7438°
Arg. of periapsis
122.3719°
True anomaly
237.74545°
Mean anomaly
238.1358°
Eccentric anomaly
237.94052°
Mean motion
3.54393 °/min
Orbital period
101.58 mins
BSTAR
0.00095676
Loading maneuver chart data...
Computing Atmospheric mass density...
Loading historical data...
Loading historical data...
Loading historical data...
Loading historical data...
Loading historical data...
Loading historical data...
Loading historical data...

Documentation

Showing up to 5 results
|